Location: Vigevano
(45.3170°N, 8.8500°E)
Time: 12:26:51
(UTC+01:00)

ISS - Visible Passes

Search period start: 07 February 2026 00:00
Search period end: 17 February 2026 00:00
Orbit: 414 x 429 km, 51.6° (Epoch: 6 February)

Date Brightness Start Highest point End Pass type
(mag) Time Alt. Az. Time Alt. Az. Time Alt. Az.
12 Feb -1.2 06:19:16 10° S 06:21:51 21° SE 06:24:28 10° E visible
13 Feb -0.8 05:33:17 10° SSE 05:34:59 13° SE 05:36:42 10° ESE visible
14 Feb -3.1 06:21:02 10° SW 06:24:19 54° SE 06:27:36 10° ENE visible
15 Feb -2.3 05:36:13 27° S 05:37:17 34° SE 05:40:22 10° ENE visible
16 Feb -1.1 04:51:22 19° ESE 04:51:22 19° ESE 04:52:56 10° E visible
16 Feb -3.7 06:24:22 16° WSW 06:26:53 63° NNW 06:30:12 10° ENE visible
